Terug naar catalogus

DELTA 1 DEB

ActiefSSO
NORAD 7151·DEBRIS·🇺🇸 United States

Gelanceerd Nov 6, 1973 vanaf Vandenberg Space Force Base

Loading…

Volgende Passages (komende 24 uur)

TLE

VersSource: Space-Track

Epoch: Sep 14, 2026, 08:15 UTC

1 07151U 73086DR  26257.34389024  .00000194  00000-0  22946-2 0  9992
2 07151 102.7768  28.6014 0154998 301.2991  81.9061 12.17924572345231

Volg DELTA 1 DEB in realtime met AllMySat

Download on the App Store